Weather History for Medicine Hat, AB

Change the Weather History Date:

Sunday, April 21, 2013

  Actual Average Record
Temperature  
Mean Temperature 12 °F -  
Max Temperature 35 °F 63 °F 78 °F (2006)
Min Temperature -11 °F 39 °F -11 °F (2013)
Degree Days  
Heating Degree Days 53    
Moisture  
Dew Point 13 °F    
Average Humidity 62    
Maximum Humidity 85    
Minimum Humidity 36    
Precipitation  
Precipitation 0.01 in 0.05 in - ()
Sea Level Pressure  
Sea Level Pressure 30.23 in    
Wind  
Wind Speed 12 mph ()    
Max Wind Speed 23 mph    
Max Gust Speed 31 mph    
Visibility 9.5 miles    
Events Snow    
Averages and records for this station are not official NWS values.
T = Trace of Precipitation, MM = Missing Value Source: Averaged Metar Reports

Daily Weather History Graph

Daily Weather History Graph

Search for Another Location

Airport:

Trip Planner

Search our weather history database for the weather conditions in past years. The results will help you decide how hot, cold, wet, or windy it might be!

Date:

Astronomy

Apr. 21, 2013 Rise Set
Actual Time 6:17 AM MDT 8:26 PM MDT
Civil Twilight 5:42 AM MDT 9:01 PM MDT
Nautical Twilight 4:58 AM MDT 9:45 PM MDT
Astronomical Twilight 4:08 AM MDT 10:36 PM MDT
Moon 3:52 PM MDT (4/21) 4:07 AM MDT (4/21)
Length of Visible Light 15h 19m
Length of Day
14h 09m
Waxing Gibbous, 80% of the Moon is Illuminated
Apr 21
Waxing Gibbous
Apr 25
Full
May 2
Last Quarter
May 9
New
May 17
First Quarter

Hourly Weather History & Observations

Time (MDT) Temp. Windchill Dew Point Humidity Pressure Visibility Wind Dir Wind Speed Gust Speed Precip Events Conditions
12:00 AM -9 °F - -12 °F 76% 29.56 in - South 11.5 mph - -  
12:00 AM 32.0 °F 21.2 °F 21.2 °F 64% 30.17 in 9.0 mi NW 16.1 mph - N/A   Overcast
1:00 AM 30.2 °F 19.8 °F 23.0 °F 75% 30.17 in 9.0 mi NW 13.8 mph - N/A   Overcast
2:00 AM 32.0 °F 20.8 °F 23.0 °F 69% 30.18 in 9.0 mi NW 17.3 mph - N/A   Overcast
3:00 AM 28.4 °F 14.4 °F 21.2 °F 74% 30.25 in 9.0 mi NNW 23.0 mph 31.1 mph N/A   Overcast
4:00 AM 26.6 °F 12.7 °F 19.4 °F 74% 30.26 in 9.0 mi NNW 20.7 mph - N/A   Mostly Cloudy
5:00 AM 26.6 °F 13.4 °F 17.6 °F 69% 30.29 in 9.0 mi North 18.4 mph 25.3 mph N/A   Overcast
5:23 AM 26.6 °F 16.8 °F 17.6 °F 69% 30.30 in 9.0 mi North 10.4 mph - N/A Snow Light Snow
6:00 AM -10 °F - -14 °F 73% 29.57 in - SSE 6.9 mph - -  
6:00 AM 26.6 °F 16.2 °F 19.4 °F 74% 30.32 in 9.0 mi NW 11.5 mph - N/A Snow Light Snow
7:00 AM 24.8 °F 12.4 °F 19.4 °F 80% 30.34 in 30.0 mi NW 15.0 mph - N/A Snow Light Snow Showers
7:39 AM 24.8 °F 12.4 °F 17.6 °F 74% 30.36 in 30.0 mi NNW 15.0 mph 21.9 mph N/A   Mostly Cloudy
8:00 AM 24.8 °F 12.9 °F 17.6 °F 74% 30.36 in 30.0 mi NW 13.8 mph 20.7 mph N/A   Mostly Cloudy
9:00 AM 26.6 °F 15.2 °F 15.8 °F 64% 30.36 in 30.0 mi North 13.8 mph 20.7 mph N/A   Mostly Cloudy
11:00 AM 32.0 °F 22.5 °F 15.8 °F 51% 30.36 in 30.0 mi North 12.7 mph 19.6 mph N/A   Mostly Cloudy
12:00 PM -6 °F - -8 °F 85% 29.57 in - South 3.5 mph - -  
12:00 PM 33.8 °F 24.3 °F 12.2 °F 41% 30.35 in 30.0 mi North 13.8 mph 21.9 mph N/A   Mostly Cloudy
1:00 PM 35.6 °F 25.9 °F 12.2 °F 38% 30.33 in 30.0 mi NNW 16.1 mph 24.2 mph N/A   Mostly Cloudy
2:00 PM 33.8 °F 23.9 °F 12.2 °F 41% 30.34 in 30.0 mi NNW 15.0 mph 23.0 mph N/A   Mostly Cloudy
3:00 PM 37.4 °F 30.3 °F 12.2 °F 36% 30.35 in 30.0 mi NNW 10.4 mph 23.0 mph N/A   Mostly Cloudy
4:00 PM 37.4 °F 28.9 °F 12.2 °F 36% 30.35 in 30.0 mi NW 13.8 mph 23.0 mph N/A   Mostly Cloudy
5:00 PM 35.6 °F 25.9 °F 12.2 °F 38% 30.36 in 30.0 mi NNW 16.1 mph - N/A   Mostly Cloudy
6:00 PM -4 °F - -7 °F 80% 29.60 in - South 2.3 mph - -  
6:00 PM 35.6 °F 24.8 °F 12.2 °F 38% 30.37 in 30.0 mi North 19.6 mph - N/A   Mostly Cloudy
7:00 PM 33.8 °F 25.3 °F 12.2 °F 41% 30.38 in 30.0 mi NNW 11.5 mph - N/A   Mostly Cloudy
8:00 PM 32.0 °F 23.0 °F 15.8 °F 51% 30.40 in 30.0 mi NW 11.5 mph - N/A   Mostly Cloudy
9:00 PM 26.6 °F 19.1 °F 15.8 °F 64% 30.43 in 15.0 mi NNW 6.9 mph - N/A   Partly Cloudy
10:00 PM 24.8 °F 17.9 °F 15.8 °F 69% 30.46 in 9.0 mi North 5.8 mph - N/A   Clear
11:00 PM 24.8 °F 16.9 °F 15.8 °F 69% 30.48 in 9.0 mi NNE 6.9 mph - N/A   Clear